Estación de Hornitos

Ultimos registro cada 15 minutos 81
Estación Fecha / Hora Temperatura Humedad Lluvia Velocidad Dirección Radiación Presion
81 Hornitos 08-05-2026 20:15 12,1 47 0 0 221 0 1010,7
80 Hornitos 08-05-2026 20:00 12,4 45 0 0 221 0 1010,5
79 Hornitos 08-05-2026 19:45 12,8 44 0 0 235 0 1010,2
78 Hornitos 08-05-2026 19:30 13,3 42 0 0 235 0 1009,8
77 Hornitos 08-05-2026 19:15 13,8 40 0 0 252 0 1009,7
76 Hornitos 08-05-2026 19:00 14,9 37 0 0 263 0 1009,6
75 Hornitos 08-05-2026 18:45 16,2 34 0 0 260 0 1008,9
74 Hornitos 08-05-2026 18:30 17,9 31 0 0 264 0 1008,9
73 Hornitos 08-05-2026 18:15 19,9 27 0 0 279 0 1008,9
72 Hornitos 08-05-2026 18:00 21,8 24 0 0 281 5 1009
71 Hornitos 08-05-2026 17:45 22,9 21 0 0 287 12 1008,9
70 Hornitos 08-05-2026 17:30 23,4 20 0 2,2 317 16 1008,9
69 Hornitos 08-05-2026 17:15 24,6 18 0 2,7 272 23 1009,1
68 Hornitos 08-05-2026 17:00 26,1 16 0 0,9 324 148 1009,1
67 Hornitos 08-05-2026 16:45 26,3 15 0 1,3 315 202 1008,9
66 Hornitos 08-05-2026 16:30 26,8 15 0 1,8 293 239 1008,9
65 Hornitos 08-05-2026 16:15 26,8 14 0 2,2 318 283 1008,8
64 Hornitos 08-05-2026 16:00 27,1 13 0 3,6 252 327 1008,9
63 Hornitos 08-05-2026 15:45 27,6 13 0 2,2 316 373 1008,8
62 Hornitos 08-05-2026 15:30 27,8 12 0 1,3 318 406 1008,5
61 Hornitos 08-05-2026 15:15 27,4 13 0 2,2 332 438 1008,6
60 Hornitos 08-05-2026 15:00 27,7 12 0 1,8 316 471 1008,7
59 Hornitos 08-05-2026 14:45 27,6 13 0 1,3 348 506 1008,6
58 Hornitos 08-05-2026 14:30 27,4 13 0 1,8 309 533 1008,8
57 Hornitos 08-05-2026 14:15 27,4 13 0 1,3 32 555 1008,8
56 Hornitos 08-05-2026 14:00 27,8 11 0 1,8 328 577 1008,9
55 Hornitos 08-05-2026 13:45 27,7 10 0 0,9 356 306 1008,9
54 Hornitos 08-05-2026 13:30 27,4 9 0 1,8 315 51 1008,9
53 Hornitos 08-05-2026 13:15 27,4 8 0 2,2 31 74 1009,2
52 Hornitos 08-05-2026 13:00 27,4 7 0 0,4 347 74 1009,4
51 Hornitos 08-05-2026 12:45 27,3 8 0 0,4 347 172 1009,8
50 Hornitos 08-05-2026 12:30 27,1 7 0 1,3 8 93 1010,1
49 Hornitos 08-05-2026 12:15 26,6 7 0 1,3 35 227 1010,3
48 Hornitos 08-05-2026 12:00 26,2 7 0 1,3 61 81 1010,7
47 Hornitos 08-05-2026 11:45 24,7 9 0 3,1 60 603 1010,8
46 Hornitos 08-05-2026 11:15 23,5 13 0 0,9 12 568 1011,2
45 Hornitos 08-05-2026 11:00 23,5 13 0 0,9 12 568 1011,2
44 Hornitos 08-05-2026 10:45 22,7 16 0 0,9 48 545 1011,3
43 Hornitos 08-05-2026 10:30 21,8 16 0 0 69 457 1011,4
42 Hornitos 08-05-2026 10:15 20,5 20 0 0,4 73 376 1011,6
41 Hornitos 08-05-2026 10:00 20,5 20 0 0,4 73 376 1011,6
40 Hornitos 08-05-2026 09:45 20,1 21 0 0,4 73 267 1011,6
39 Hornitos 08-05-2026 09:30 19,3 21 0 0 61 311 1011,6
38 Hornitos 08-05-2026 09:15 19 21 0 0,4 58 239 1011,8
37 Hornitos 08-05-2026 09:00 18,3 27 0 0 169 267 1011,8
36 Hornitos 08-05-2026 08:45 15,2 37 0 0 169 264 1011,9
35 Hornitos 08-05-2026 08:30 11,5 50 0 0 169 206 1011,7
34 Hornitos 08-05-2026 08:15 7,9 57 0 0 169 162 1011,6
33 Hornitos 08-05-2026 08:00 6,9 55 0 0 169 16 1011,6
32 Hornitos 08-05-2026 07:45 6,4 56 0 0,4 169 14 1011,3
31 Hornitos 08-05-2026 07:30 6,2 56 0 0 169 11 1011,3
30 Hornitos 08-05-2026 07:15 6,1 57 0 0 169 5 1011,3
29 Hornitos 08-05-2026 07:00 6,2 57 0 0 169 0 1011,3
28 Hornitos 08-05-2026 06:45 6,4 57 0 0 169 0 1011,2
27 Hornitos 08-05-2026 06:30 6,4 58 0 0 203 0 1011,2
26 Hornitos 08-05-2026 06:15 6,6 58 0 0 204 0 1011,2
25 Hornitos 08-05-2026 06:00 6,7 59 0 0 209 0 1011,1
24 Hornitos 08-05-2026 05:45 6,6 61 0 0 209 0 1011,1
23 Hornitos 08-05-2026 05:30 6,5 61 0 0 208 0 1010,9
22 Hornitos 08-05-2026 05:15 6,2 61 0 0 169 0 1011,1
21 Hornitos 08-05-2026 05:00 6,3 61 0 0 169 0 1010,9
20 Hornitos 08-05-2026 04:45 6,3 62 0 0 169 0 1011,1
19 Hornitos 08-05-2026 04:30 6,6 62 0 0 169 0 1011,2
18 Hornitos 08-05-2026 04:15 6,7 62 0 0 169 0 1011,1
17 Hornitos 08-05-2026 04:00 6,8 62 0 0 169 0 1010,9
16 Hornitos 08-05-2026 03:45 6,8 62 0 0 169 0 1011
15 Hornitos 08-05-2026 03:30 6,8 63 0 0 169 0 1011,1
14 Hornitos 08-05-2026 03:15 7 63 0 0 169 0 1011,4
13 Hornitos 08-05-2026 03:00 6,9 64 0 0 169 0 1011,6
12 Hornitos 08-05-2026 02:45 6,9 64 0 0 169 0 1011,5
11 Hornitos 08-05-2026 02:30 6,8 65 0 0 169 0 1011,6
10 Hornitos 08-05-2026 02:15 7,1 64 0 0 146 0 1011,6
9 Hornitos 08-05-2026 02:00 7,1 63 0 0 146 0 1011,8
8 Hornitos 08-05-2026 01:45 7,4 63 0 0 146 0 1012
7 Hornitos 08-05-2026 01:30 7,5 63 0 0 146 0 1012,1
6 Hornitos 08-05-2026 01:15 7,4 64 0 0 125 0 1012
5 Hornitos 08-05-2026 01:00 7,4 63 0 0 108 0 1012,3
4 Hornitos 08-05-2026 00:45 7,6 62 0 0 108 0 1012,4
3 Hornitos 08-05-2026 00:30 7,8 62 0 0 108 0 1012,6
2 Hornitos 08-05-2026 00:15 7,9 61 0 0 108 0 1012,8
1 Hornitos 08-05-2026 00:00 8,2 60 0 0 100 0 1012,9